TimeEST,TemperatureF,Dew PointF,Humidity,Sea Level PressureIn,VisibilityMPH,Wind Direction,Wind SpeedMPH,Gust SpeedMPH,PrecipitationIn,Events,Conditions,WindDirDegrees,DateUTC
12:53 AM,19.9,16.0,85,30.33,10.0,Calm,Calm,-,N/A,,Clear,0,2013-02-11 05:53:00
1:53 AM,21.9,17.1,82,30.32,10.0,Calm,Calm,-,N/A,,Clear,0,2013-02-11 06:53:00
2:53 AM,21.0,16.0,81,30.28,10.0,Calm,Calm,-,N/A,,Clear,0,2013-02-11 07:53:00
3:53 AM,23.0,18.0,81,30.24,10.0,Calm,Calm,-,N/A,,Overcast,0,2013-02-11 08:53:00
4:53 AM,25.0,19.9,81,30.24,10.0,Calm,Calm,-,N/A,,Mostly Cloudy,0,2013-02-11 09:53:00
5:53 AM,26.1,21.0,81,30.21,10.0,Calm,Calm,-,N/A,,Overcast,0,2013-02-11 10:53:00
6:53 AM,28.0,21.9,78,30.18,10.0,Calm,Calm,-,0.00,,Overcast,0,2013-02-11 11:53:00
7:53 AM,28.0,24.1,85,30.13,7.0,Calm,Calm,-,0.01,,Overcast,0,2013-02-11 12:53:00
8:51 AM,30.2,26.6,86,30.09,4.0,Calm,Calm,-,0.01,Snow,Light Snow,0,2013-02-11 13:51:00
8:53 AM,30.9,27.0,85,30.09,3.0,NNE,3.5,-,0.01,Rain,Light Freezing Rain,20,2013-02-11 13:53:00
9:10 AM,30.2,28.4,93,30.07,2.5,Calm,Calm,-,0.00,Rain,Light Freezing Rain,0,2013-02-11 14:10:00
9:22 AM,30.2,28.4,93,30.06,1.8,North,3.5,-,0.02,Rain,Light Freezing Rain,10,2013-02-11 14:22:00
9:36 AM,30.2,28.4,93,30.05,2.0,Calm,Calm,-,0.03,Rain,Light Freezing Rain,0,2013-02-11 14:36:00
9:53 AM,30.9,28.9,92,30.03,1.2,North,3.5,-,0.03,Rain,Light Freezing Rain,10,2013-02-11 14:53:00
10:02 AM,32.0,30.2,93,30.02,1.0,North,4.6,-,0.01,Rain,Light Freezing Rain,350,2013-02-11 15:02:00
10:23 AM,30.2,30.2,100,30.01,0.8,North,6.9,-,0.03,Rain,Light Freezing Rain,10,2013-02-11 15:23:00
10:53 AM,32.0,30.9,96,29.98,0.5,Calm,Calm,-,0.10,Rain,Light Freezing Rain,0,2013-02-11 15:53:00
11:01 AM,32.0,32.0,100,29.97,0.5,North,3.5,-,0.02,Rain,Light Freezing Rain,350,2013-02-11 16:01:00
11:27 AM,33.8,32.0,93,29.97,1.0,North,3.5,-,0.05,Rain,Light Freezing Rain,350,2013-02-11 16:27:00
11:51 AM,33.8,32.0,93,29.94,0.8,Calm,Calm,-,0.08,Rain,Light Freezing Rain,0,2013-02-11 16:51:00
11:53 AM,33.1,32.0,96,29.94,0.8,Calm,Calm,-,0.08,Rain,Light Freezing Rain,0,2013-02-11 16:53:00
12:53 PM,34.0,33.1,96,29.87,0.8,Calm,Calm,-,0.01,Rain,Light Freezing Rain,0,2013-02-11 17:53:00
1:53 PM,34.0,34.0,100,29.80,0.8,Calm,Calm,-,0.02,Rain,Light Freezing Rain,0,2013-02-11 18:53:00
2:06 PM,35.6,33.8,93,29.80,1.0,Calm,Calm,-,0.00,Rain,Light Freezing Rain,0,2013-02-11 19:06:00
2:31 PM,33.8,33.8,100,29.79,0.8,Calm,Calm,-,0.00,Rain,Light Freezing Rain,0,2013-02-11 19:31:00
2:38 PM,33.8,33.8,100,29.80,0.8,Calm,Calm,-,0.00,Rain,Light Freezing Rain,0,2013-02-11 19:38:00
2:53 PM,35.1,34.0,96,29.79,0.8,NE,3.5,-,0.00,Rain,Light Freezing Rain,50,2013-02-11 19:53:00
3:05 PM,35.6,33.8,93,29.78,0.5,NE,3.5,-,0.00,Rain,Light Freezing Rain,40,2013-02-11 20:05:00
3:53 PM,36.0,36.0,100,29.75,0.2,Calm,Calm,-,0.00,Rain,Light Freezing Rain,0,2013-02-11 20:53:00
4:34 PM,35.6,35.6,100,29.73,0.2,Calm,Calm,-,0.00,Rain,Light Freezing Rain,0,2013-02-11 21:34:00
4:53 PM,35.1,35.1,100,29.72,0.2,Calm,Calm,-,0.00,Rain,Light Freezing Rain,0,2013-02-11 21:53:00
5:48 PM,37.4,37.4,100,29.71,0.2,South,4.6,-,0.00,Rain,Light Freezing Rain,190,2013-02-11 22:48:00
5:53 PM,41.0,39.9,96,29.71,0.2,South,4.6,-,0.00,Rain,Light Freezing Rain,190,2013-02-11 22:53:00
6:53 PM,39.9,39.9,100,29.69,0.2,South,5.8,-,0.00,Rain,Light Freezing Rain,180,2013-02-11 23:53:00
7:53 PM,37.9,37.9,100,29.67,0.2,South,3.5,-,0.00,Rain,Light Freezing Rain,170,2013-02-12 00:53:00
8:39 PM,39.2,39.2,100,29.66,0.2,South,5.8,-,0.00,Rain,Light Freezing Rain,180,2013-02-12 01:39:00
8:53 PM,39.9,39.9,100,29.66,0.2,South,3.5,-,0.00,Rain,Light Freezing Rain,190,2013-02-12 01:53:00
9:45 PM,39.2,39.2,100,29.66,2.5,Calm,Calm,-,0.00,Rain,Light Freezing Rain,0,2013-02-12 02:45:00
9:48 PM,41.0,39.2,93,29.66,5.0,Calm,Calm,-,0.00,Rain,Light Freezing Rain,0,2013-02-12 02:48:00
9:53 PM,39.9,39.9,100,29.66,9.0,Calm,Calm,-,0.00,Rain,Light Freezing Rain,0,2013-02-12 02:53:00
10:08 PM,39.2,39.2,100,29.65,4.0,Calm,Calm,-,0.00,Rain,Light Freezing Rain,0,2013-02-12 03:08:00
10:10 PM,39.2,39.2,100,29.65,1.8,Calm,Calm,-,0.00,Rain,Light Freezing Rain,0,2013-02-12 03:10:00
10:22 PM,37.4,37.4,100,29.66,3.0,Calm,Calm,-,0.00,Rain,Light Freezing Rain,0,2013-02-12 03:22:00
10:32 PM,39.2,39.2,100,29.66,6.0,Calm,Calm,-,0.00,,Overcast,0,2013-02-12 03:32:00
10:53 PM,37.0,37.0,100,29.67,6.0,Calm,Calm,-,0.00,,Overcast,0,2013-02-12 03:53:00
11:53 PM,42.1,37.0,82,29.68,10.0,North,5.8,-,N/A,,Overcast,350,2013-02-12 04:53:00